Weather History for KHFD - July, 2013

Change the Weather History Date:

Saturday, July 13, 2013

  Actual Average Record
Temperature  
Mean Temperature 73 °F -  
Max Temperature 82 °F 81 °F 95 °F (1966)
Min Temperature 66 °F 62 °F 52 °F (1933)
Cooling Degree Days 8    
Growing Degree Days 23 (Base 50)    
Moisture  
Dew Point 69 °F    
Average Humidity 84    
Maximum Humidity 100    
Minimum Humidity 63    
Precipitation  
Precipitation 0.41 in - - ()
Sea Level Pressure  
Sea Level Pressure 30.26 in    
Wind  
Wind Speed 4 mph (North)    
Max Wind Speed 8 mph    
Max Gust Speed -    
Visibility 8 miles    
Events Rain    
Averages and records for this station are not official NWS values.
T = Trace of Precipitation, MM = Missing Value Source: NWS Daily Summary

Daily Weather History Graph

Daily Weather History Graph

Search for Another Location

Airport or City:

Trip Planner

Search our weather history database for the weather conditions in past years. The results will help you decide how hot, cold, wet, or windy it might be!

Date:

Astronomy

Jul. 13, 2013 Rise Set
Actual Time 5:27 AM EDT 8:24 PM EDT
Civil Twilight 4:54 AM EDT 8:57 PM EDT
Nautical Twilight 4:12 AM EDT 9:39 PM EDT
Astronomical Twilight 3:22 AM EDT 10:28 PM EDT
Moon 10:46 AM EDT (7/13) 10:58 PM EDT (7/13)
Length of Visible Light 16h 03m
Length of Day
14h 56m
Waxing Crescent, 25% of the Moon is Illuminated
Jul 13
Waxing Crescent
Jul 15
First Quarter
Jul 22
Full
Jul 29
Last Quarter
Aug 6
New

Hourly Weather History & Observations

Time (EDT) Temp. Heat Index Dew Point Humidity Pressure Visibility Wind Dir Wind Speed Gust Speed Precip Events Conditions
12:53 AM 71.1 °F - 57.9 °F 63% 30.17 in 10.0 mi NNE 4.6 mph - N/A   Overcast
1:53 AM 70.0 °F - 57.9 °F 65% 30.17 in 10.0 mi NNE 4.6 mph - N/A   Overcast
2:53 AM 70.0 °F - 59.0 °F 68% 30.17 in 10.0 mi NNE 4.6 mph - N/A   Overcast
3:53 AM 68.0 °F - 61.0 °F 78% 30.19 in 10.0 mi North 3.5 mph - 0.00 in   Overcast
4:31 AM 68.0 °F - 60.8 °F 78% 30.19 in 10.0 mi North 5.8 mph - N/A   Overcast
4:53 AM 69.1 °F - 61.0 °F 75% 30.20 in 10.0 mi North 5.8 mph - N/A   Overcast
5:53 AM 69.1 °F - 62.1 °F 78% 30.22 in 10.0 mi North 5.8 mph - N/A   Overcast
6:53 AM 66.9 °F - 63.0 °F 87% 30.24 in 10.0 mi North 6.9 mph - 0.00 in   Overcast
7:53 AM 66.9 °F - 64.9 °F 93% 30.25 in 10.0 mi North 8.1 mph - 0.01 in   Overcast
8:53 AM 66.9 °F - 64.0 °F 90% 30.27 in 6.0 mi North 8.1 mph - 0.03 in   Overcast
9:53 AM 69.1 °F - 66.0 °F 90% 30.27 in 5.0 mi North 4.6 mph - 0.01 in Rain Light Rain
10:02 AM 68.0 °F - 66.2 °F 94% 30.27 in 1.5 mi NNW 4.6 mph - 0.06 in Rain Heavy Rain
10:07 AM 68.0 °F - 66.2 °F 94% 30.27 in 0.8 mi North 4.6 mph - 0.13 in Rain Heavy Rain
10:12 AM 68.0 °F - 66.2 °F 94% 30.28 in 1.0 mi NNW 3.5 mph - 0.14 in Rain Heavy Rain
10:17 AM 69.8 °F - 66.2 °F 88% 30.27 in 3.0 mi NNW 5.8 mph - 0.14 in Rain Light Rain
10:53 AM 70.0 °F - 66.9 °F 90% 30.28 in 10.0 mi North 8.1 mph - 0.15 in   Overcast
11:28 AM 71.6 °F - 66.2 °F 83% 30.27 in 10.0 mi NNE 3.5 mph - N/A   Overcast
11:53 AM 71.1 °F - 66.9 °F 87% 30.28 in 8.0 mi North 4.6 mph - N/A   Overcast
12:53 PM 72.0 °F - 68.0 °F 87% 30.28 in 10.0 mi NW 4.6 mph - N/A   Overcast
1:53 PM 75.0 °F - 69.1 °F 82% 30.28 in 10.0 mi North 3.5 mph - N/A   Overcast
2:14 PM 75.2 °F - 69.8 °F 83% 30.28 in 10.0 mi Calm Calm - N/A   Overcast
2:53 PM 77.0 °F - 70.0 °F 79% 30.27 in 10.0 mi NNW 5.8 mph - N/A   Overcast
3:43 PM 78.8 °F - 71.6 °F 78% 30.27 in 10.0 mi Calm Calm - N/A   Overcast
3:53 PM 78.1 °F - 71.1 °F 79% 30.27 in 4.0 mi Calm Calm - 0.01 in Rain Light Rain
4:00 PM 78.8 °F - 73.4 °F 83% 30.27 in 3.0 mi WNW 3.5 mph - 0.01 in Rain Light Rain
4:07 PM 78.8 °F - 71.6 °F 78% 30.27 in 6.0 mi North 3.5 mph - 0.01 in Rain Light Rain
4:53 PM 79.0 °F - 72.0 °F 79% 30.26 in 9.0 mi Calm Calm - 0.01 in   Overcast
5:53 PM 80.1 °F 84.2 °F 73.0 °F 79% 30.26 in 10.0 mi Calm Calm - N/A   Overcast
6:00 PM 80.6 °F 85.4 °F 73.4 °F 79% 30.26 in 10.0 mi Calm Calm - N/A   Mostly Cloudy
6:29 PM 80.6 °F 84.6 °F 71.6 °F 74% 30.26 in 10.0 mi Calm Calm - N/A   Scattered Clouds
6:53 PM 80.1 °F 83.8 °F 72.0 °F 76% 30.26 in 10.0 mi Calm Calm - N/A   Partly Cloudy
7:08 PM 80.6 °F 84.6 °F 71.6 °F 74% 30.26 in 10.0 mi Calm Calm - N/A   Scattered Clouds
7:53 PM 80.1 °F 84.2 °F 73.0 °F 79% 30.27 in 10.0 mi Calm Calm - N/A   Overcast
8:39 PM 78.8 °F - 73.4 °F 83% 30.27 in 10.0 mi South 5.8 mph - N/A   Mostly Cloudy
8:53 PM 78.1 °F - 73.9 °F 87% 30.27 in 10.0 mi SSE 3.5 mph - N/A   Overcast
9:13 PM 75.2 °F - 75.2 °F 100% 30.28 in 1.8 mi South 5.8 mph - 0.15 in Rain Heavy Rain
9:22 PM 75.2 °F - 73.4 °F 94% 30.28 in 3.0 mi SSE 4.6 mph - 0.18 in Rain Light Rain
9:34 PM 75.2 °F - 73.4 °F 94% 30.28 in 10.0 mi South 4.6 mph - 0.18 in   Overcast
9:53 PM 75.9 °F - 73.9 °F 94% 30.28 in 10.0 mi South 3.5 mph - 0.18 in   Overcast
10:04 PM 75.2 °F - 73.4 °F 94% 30.28 in 10.0 mi South 4.6 mph - N/A   Mostly Cloudy
10:16 PM 75.2 °F - 73.4 °F 94% 30.29 in 10.0 mi South 4.6 mph - N/A   Mostly Cloudy
10:53 PM 75.0 °F - 73.9 °F 96% 30.29 in 10.0 mi Calm Calm - N/A   Overcast
11:50 PM 75.2 °F - 73.4 °F 94% 30.30 in 8.0 mi Calm Calm - 0.01 in Rain Light Rain
11:53 PM 75.0 °F - 73.9 °F 96% 30.30 in 7.0 mi Calm Calm - 0.01 in Rain Light Rain